Wind_Speed
11 11 11 11 12 13 13 12 12 12 12 11 11 11 11 11 11 11 12 12 12 12 12 11 11 10 9 9 9 9 9 9 8 8 7 7 6 5 5 4 4 4 4
11 11 11 12 12 12 13 13 12 11 11 11 11 11 11 11 11 11 11 11 11 11 11 11 11 10 10 10 9 9 9 9 8 8 7 6 5 4 4 4 4 4 4
10 10 11 11 12 12 12 12 12 11 11 11 10 10 10 11 11 11 11 11 11 11 11 11 11 10 10 10 9 9 9 9 8 7 6 5 5 4 4 4 5 4 4
9 9 10 11 11 11 12 11 11 11 11 10 10 10 10 10 10 11 11 11 10 11 11 10 11 10 10 10 9 9 8 8 7 7 6 6 6 5 4 4 5 4 4
9 10 10 11 11 11 11 11 10 9 10 10 10 10 10 10 10 10 10 10 10 9 10 10 10 10 10 9 9 8 8 7 7 7 6 6 6 5 5 5 5 5 5
9 10 10 10 10 10 10 10 10 9 9 9 9 9 9 8 8 9 9 9 9 9 10 10 9 9 9 9 8 8 7 7 7 6 6 6 6 5 5 5 5 4 4
9 9 10 10 10 10 9 9 9 9 9 9 8 9 8 8 7 8 8 8 8 8 9 9 9 8 8 8 7 7 7 7 7 7 6 6 5 5 4 4 3 4 4
9 9 10 10 10 9 9 9 8 8 8 8 7 7 7 7 7 7 7 7 7 7 8 8 8 8 7 7 7 7 7 7 7 7 7 6 5 5 4 4 3 3 4
10 10 10 10 10 9 9 8 8 8 7 7 6 6 6 6 6 7 7 7 7 7 7 7 7 7 7 7 7 7 7 7 7 7 7 6 6 5 4 4 4 4 4
11 11 10 10 9 9 8 7 7 7 7 7 6 5 5 5 5 6 6 6 6 6 6 6 6 6 6 6 6 7 7 7 7 7 7 6 6 5 5 4 3 3 3
11 11 10 10 9 8 8 7 7 7 6 7 6 6 5 5 5 5 6 5 5 5 5 5 5 5 5 6 6 6 6 6 6 7 7 6 6 5 5 4 3 3 2
11 10 10 10 9 8 7 7 7 6 6 5 5 4 4 5 5 5 5 5 5 5 5 5 5 5 5 5 5 5 6 6 7 7 6 6 6 5 5 4 3 3 3
10 10 10 10 9 8 7 7 6 6 5 5 5 4 5 5 4 4 4 3 4 5 5 5 5 4 4 4 5 5 5 6 6 6 6 6 6 6 5 4 3 3 2
10 10 10 9 9 8 7 6 6 5 5 5 5 4 4 4 4 3 3 3 3 4 4 4 5 5 4 4 5 5 5 5 6 6 6 6 6 5 5 4 3 3 2
9 9 9 8 8 8 8 8 6 5 5 5 4 4 4 4 4 3 3 3 3 3 3 4 4 4 4 4 4 4 5 5 5 5 5 5 5 5 4 4 3 2 2
9 8 9 8 8 8 7 7 6 6 4 3 3 3 3 3 3 3 2 2 2 3 3 3 3 4 4 4 4 3 4 5 5 5 5 5 5 5 4 3 2 2 2
9 8 8 8 8 8 7 7 6 6 6 4 3 3 3 3 2 3 2 2 2 2 2 2 2 3 3 3 3 3 4 4 4 4 4 4 5 4 4 3 2 2 1
9 9 8 8 8 7 7 6 6 6 6 5 4 3 3 3 3 2 1 1 0 0 1 1 2 2 2 2 3 4 4 4 4 4 4 4 4 4 4 3 3 3 3
8 8 8 8 8 7 7 7 6 6 5 4 3 3 2 2 2 1 1 1 1 1 1 1 2 2 2 2 3 3 4 4 4 4 4 4 4 4 4 3 4 4 4
8 7 7 7 7 7 7 6 6 5 5 3 3 3 3 2 2 2 2 1 1 1 1 2 2 2 2 2 2 3 3 4 4 4 4 4 4 4 4 4 5 5 5
7 7 6 6 6 6 6 6 6 6 5 4 3 3 3 3 3 3 3 2 2 2 3 3 3 3 3 3 3 3 4 4 4 5 5 5 5 5 5 6 6 6 6
7 7 7 6 5 5 5 6 6 6 6 5 4 3 3 3 4 4 3 2 3 3 3 3 3 4 4 4 4 5 5 5 6 6 6 6 6 6 6 7 8 8 8
7 6 6 6 5 5 5 5 6 5 5 5 4 4 3 4 4 4 3 3 4 4 4 5 5 5 5 5 6 6 7 6 7 7 7 7 8 8 8 9 9 9 10
6 6 6 6 6 6 5 5 6 6 5 5 5 5 4 4 5 5 4 5 5 5 5 5 6 6 7 7 7 8 8 8 8 9 9 9 9 9 10 10 11 11 11
6 6 7 7 7 7 6 5 6 6 6 6 5 5 5 5 6 6 6 6 6 6 6 6 6 7 8 8 9 9 9 9 9 10 10 11 11 11 11 11 11 12 11
8 8 8 8 8 8 8 7 7 7 7 7 6 6 7 7 6 7 7 7 7 7 7 7 7 8 8 8 9 9 10 10 10 11 11 12 12 12 12 12 12 12 12
Wind_Direction
67 70 75 75 74 74 75 76 77 74 76 79 81 78 82 86 88 90 94 97 95 97 99 98 95 93 93 96 101 100 101 96 91 87 86 84 83 86 93 96 104 111 112
65 70 74 73 73 73 74 75 75 74 76 79 82 82 83 86 84 87 92 94 95 95 93 93 92 92 92 93 95 95 93 88 86 83 78 78 81 87 94 97 100 105 114
64 69 72 72 72 73 74 75 75 76 77 80 81 80 80 84 85 86 87 90 95 94 92 91 89 89 90 88 88 86 85 85 83 77 72 74 74 78 90 102 97 97 112
64 68 70 72 74 75 75 74 75 75 75 79 82 80 79 84 88 90 87 87 92 93 91 89 86 85 85 84 82 80 80 79 75 71 70 76 75 75 82 98 97 99 111
69 73 72 74 74 73 75 75 76 75 75 73 75 77 79 85 86 87 86 86 86 88 89 87 84 84 84 82 80 77 76 74 70 68 70 72 76 78 79 89 92 102 111
72 77 76 74 73 71 74 75 76 75 72 69 72 77 81 82 82 91 90 88 85 84 85 83 81 82 82 81 78 76 74 72 67 66 66 66 70 71 73 79 84 99 110
71 75 75 74 74 72 75 78 77 76 75 74 74 72 76 78 84 92 90 90 89 85 83 81 80 79 80 77 74 75 73 68 65 63 62 64 63 63 66 69 78 99 112
67 73 74 74 75 73 79 82 81 80 79 80 80 77 77 76 82 88 91 91 88 83 81 80 79 78 78 74 72 74 71 64 62 60 57 55 55 59 62 61 71 101 120
65 67 73 74 73 77 83 83 82 82 82 81 80 78 78 81 81 83 85 88 87 84 82 80 76 75 73 69 69 70 67 61 59 56 52 49 49 51 56 63 75 96 114
64 66 70 73 73 79 85 85 81 81 81 80 80 78 80 82 86 88 89 91 88 84 81 81 77 73 70 68 67 68 64 58 54 50 48 45 46 50 55 64 80 84 92
64 67 68 70 72 80 82 82 79 80 82 81 79 79 82 85 86 94 94 92 84 80 78 75 74 70 70 68 64 63 60 54 50 47 48 47 48 49 53 62 74 77 79
64 65 68 67 69 77 83 79 81 82 83 81 79 76 90 89 91 96 97 89 80 78 74 70 70 68 66 66 65 58 53 51 46 44 47 49 48 48 50 58 68 77 84
61 61 63 65 66 70 80 74 80 83 77 71 79 86 92 90 94 91 86 85 81 75 73 64 62 64 65 65 59 52 51 51 45 41 44 49 49 47 46 48 59 70 74
60 59 58 59 59 59 60 67 71 76 75 78 92 89 85 78 81 81 74 75 74 77 73 66 63 65 65 60 53 51 49 44 39 38 41 44 44 45 44 43 52 66 64
55 56 57 56 53 51 50 50 60 72 76 88 97 90 74 76 83 82 81 81 84 81 76 71 66 62 66 64 58 51 42 35 33 34 36 34 34 37 40 42 51 65 51
49 49 50 52 48 48 45 44 52 74 85 93 81 62 69 83 87 81 86 91 89 79 69 59 54 55 63 64 62 46 32 25 24 24 24 21 22 23 24 31 38 44 40
45 44 43 42 44 44 45 45 45 61 64 71 74 73 66 66 80 68 73 90 89 82 71 57 50 51 52 52 41 28 23 19 14 12 13 10 10 10 6 7 8 5 352
38 38 37 37 39 43 45 41 43 41 45 57 66 67 62 62 58 48 50 53 47 67 46 44 34 29 37 26 16 12 10 4 357 358 357 358 358 354 349 346 347 344 330
34 32 30 31 35 37 37 37 39 37 40 47 49 52 50 65 68 47 20 358 348 10 5 354 351 344 338 2 5 2 359 354 345 341 341 344 339 339 342 336 331 329 323
32 30 26 26 31 32 31 29 31 30 33 36 38 39 29 26 31 22 3 332 328 331 326 323 320 321 326 333 336 334 329 330 332 328 326 329 325 324 331 331 326 319 312
26 27 23 21 24 25 25 23 27 29 30 27 24 20 14 12 6 354 330 320 298 293 290 292 308 312 315 309 309 312 312 315 316 311 308 313 317 315 318 321 321 315 308
17 18 17 15 17 14 14 16 16 23 21 20 17 12 6 4 1 349 322 314 299 294 295 297 305 308 312 305 300 305 308 306 305 304 301 302 306 307 309 312 315 314 304
6 10 9 5 5 3 2 2 2 7 12 13 8 1 353 352 349 341 321 311 307 299 298 291 290 295 303 304 298 295 299 298 296 301 304 301 299 300 303 308 311 311 306
345 348 351 350 344 343 347 352 355 0 6 8 5 0 341 333 329 325 320 300 291 292 295 292 291 292 297 299 298 294 295 296 294 296 298 298 299 297 298 300 302 304 303
318 323 328 331 329 326 327 332 340 345 347 349 347 344 338 327 321 318 315 308 299 294 297 298 293 295 295 294 295 296 294 294 291 291 291 292 295 297 297 295 298 300 299
301 303 309 316 318 318 319 322 323 327 330 332 331 325 326 320 316 314 309 306 300 296 294 292 292 293 293 293 292 292 292 292 290 289 290 290 293 295 296 296 296 297 297
Height
5875 5874 5874 5874 5874 5873 5873 5873 5874 5874 5874 5874 5874 5875 5875 5875 5876 5876 5876 5877 5877 5877 5878 5878 5879 5880 5880 5880 5881 5881 5881 5881 5882 5882 5882 5882 5882 5882 5882 5882 5883 5883 5883
5877 5876 5876 5876 5875 5875 5875 5875 5875 5876 5876 5876 5876 5877 5877 5877 5878 5878 5878 5879 5879 5880 5880 5880 5881 5881 5882 5882 5882 5882 5882 5882 5883 5883 5882 5883 5883 5883 5883 5883 5883 5883 5883
5879 5878 5878 5878 5877 5877 5877 5877 5877 5877 5877 5877 5878 5878 5879 5879 5879 5880 5880 5881 5881 5882 5882 5882 5883 5883 5883 5883 5884 5884 5884 5884 5884 5883 5883 5883 5883 5883 5883 5883 5884 5884 5884
5881 5880 5880 5879 5879 5879 5879 5879 5879 5879 5879 5879 5880 5880 5881 5881 5881 5882 5882 5883 5883 5884 5884 5884 5884 5885 5885 5885 5885 5885 5885 5885 5885 5885 5884 5884 5884 5884 5884 5884 5884 5884 5884
5882 5882 5881 5881 5881 5881 5881 5881 5881 5881 5881 5881 5881 5882 5882 5883 5883 5883 5884 5884 5885 5885 5885 5885 5886 5886 5886 5886 5886 5886 5886 5886 5886 5886 5885 5885 5885 5885 5884 5884 5884 5884 5885
5884 5883 5883 5883 5883 5883 5882 5883 5883 5883 5883 5883 5883 5884 5884 5884 5884 5885 5885 5886 5886 5887 5887 5887 5887 5888 5888 5888 5887 5887 5887 5887 5887 5886 5886 5886 5886 5885 5885 5885 5885 5885 5885
5886 5885 5884 5884 5884 5884 5884 5884 5884 5884 5885 5885 5885 5885 5886 5886 5886 5886 5887 5887 5888 5888 5888 5888 5888 5889 5889 5889 5889 5888 5888 5888 5887 5887 5887 5886 5886 5886 5886 5885 5885 5885 5886
5887 5886 5886 5886 5885 5885 5885 5885 5885 5886 5886 5886 5886 5887 5887 5887 5887 5888 5888 5889 5889 5889 5889 5889 5889 5890 5890 5890 5890 5889 5889 5889 5888 5888 5888 5887 5887 5886 5886 5886 5885 5885 5886
5889 5888 5888 5887 5887 5886 5886 5887 5887 5887 5887 5887 5888 5888 5888 5888 5889 5889 5889 5890 5890 5890 5890 5890 5891 5891 5891 5891 5890 5890 5890 5890 5889 5889 5888 5888 5887 5887 5886 5886 5885 5885 5886
5890 5890 5889 5889 5888 5888 5888 5888 5888 5888 5888 5888 5889 5889 5889 5889 5890 5890 5890 5891 5891 5891 5891 5891 5891 5892 5892 5892 5891 5891 5891 5891 5890 5890 5889 5888 5888 5887 5887 5887 5887 5887 5887
5892 5891 5891 5890 5890 5889 5889 5889 5889 5889 5889 5889 5889 5890 5890 5890 5891 5891 5892 5892 5892 5892 5893 5892 5892 5893 5893 5893 5892 5892 5892 5891 5891 5890 5890 5889 5888 5888 5888 5888 5887 5888 5888
5894 5893 5893 5892 5892 5891 5890 5890 5890 5890 5890 5890 5890 5890 5890 5891 5892 5892 5893 5893 5893 5893 5893 5893 5893 5893 5893 5893 5893 5893 5893 5892 5892 5891 5891 5890 5889 5889 5888 5888 5888 5888 5888
5896 5895 5894 5894 5893 5892 5892 5892 5891 5891 5891 5890 5890 5891 5891 5892 5892 5893 5893 5894 5894 5894 5894 5894 5894 5894 5894 5894 5894 5894 5893 5893 5893 5892 5891 5891 5890 5890 5889 5889 5889 5889 5889
5897 5897 5896 5896 5895 5894 5893 5893 5892 5892 5892 5892 5892 5892 5893 5893 5893 5893 5894 5894 5895 5895 5895 5895 5895 5895 5895 5895 5895 5895 5894 5894 5893 5893 5892 5892 5891 5891 5890 5890 5889 5889 5889
5899 5898 5898 5897 5896 5896 5895 5894 5894 5893 5893 5893 5893 5893 5893 5893 5893 5894 5894 5895 5895 5896 5896 5896 5896 5896 5896 5896 5896 5895 5895 5895 5894 5894 5893 5893 5892 5891 5891 5890 5890 5890 5890
5901 5900 5899 5899 5898 5897 5896 5895 5895 5894 5893 5893 5893 5894 5894 5894 5894 5894 5895 5895 5895 5896 5896 5896 5896 5896 5896 5896 5896 5896 5895 5895 5895 5894 5894 5893 5893 5892 5892 5891 5891 5890 5890
5902 5902 5901 5900 5899 5899 5898 5897 5896 5895 5895 5894 5894 5894 5894 5894 5894 5895 5895 5895 5896 5896 5896 5896 5896 5897 5897 5897 5897 5896 5896 5895 5895 5895 5894 5894 5893 5893 5892 5891 5891 5891 5890
5904 5903 5902 5902 5901 5900 5899 5898 5897 5896 5895 5895 5895 5895 5894 5894 5894 5895 5895 5896 5896 5896 5896 5897 5897 5897 5897 5897 5896 5896 5896 5895 5895 5895 5894 5894 5893 5893 5892 5891 5891 5891 5890
5905 5904 5904 5903 5902 5901 5900 5900 5899 5898 5897 5896 5896 5895 5895 5895 5895 5895 5896 5896 5896 5896 5896 5896 5896 5896 5896 5896 5896 5896 5896 5896 5895 5895 5894 5894 5893 5893 5892 5891 5891 5890 5890
5907 5906 5905 5904 5903 5902 5902 5901 5900 5899 5898 5897 5897 5896 5896 5896 5895 5895 5896 5896 5895 5896 5896 5896 5896 5896 5895 5895 5896 5896 5895 5895 5895 5894 5894 5893 5893 5892 5892 5891 5891 5890 5889
5908 5907 5906 5905 5904 5904 5903 5902 5901 5900 5899 5898 5897 5897 5896 5896 5896 5896 5895 5895 5895 5895 5895 5895 5895 5895 5895 5895 5895 5895 5895 5894 5894 5893 5893 5893 5892 5892 5891 5890 5890 5889 5888
5909 5908 5907 5907 5906 5905 5904 5903 5902 5901 5900 5899 5898 5897 5897 5896 5896 5895 5895 5895 5895 5895 5894 5894 5895 5894 5894 5894 5894 5894 5894 5894 5893 5892 5892 5891 5891 5891 5890 5889 5889 5888 5887
5909 5908 5908 5907 5906 5905 5904 5903 5902 5901 5900 5899 5898 5898 5897 5896 5896 5895 5895 5894 5894 5894 5894 5894 5894 5894 5893 5893 5893 5893 5892 5892 5891 5891 5890 5890 5889 5889 5889 5888 5887 5886 5885
5909 5908 5908 5907 5907 5905 5904 5904 5903 5902 5901 5900 5899 5898 5897 5896 5896 5895 5894 5894 5894 5893 5893 5893 5893 5892 5892 5892 5891 5891 5891 5890 5889 5889 5889 5888 5887 5887 5887 5886 5885 5884 5884
5908 5908 5907 5907 5906 5905 5904 5903 5903 5902 5901 5900 5899 5898 5897 5896 5895 5894 5893 5892 5892 5892 5892 5892 5891 5891 5890 5890 5890 5889 5888 5888 5887 5887 5886 5886 5885 5885 5884 5884 5883 5882 5881
5907 5907 5906 5906 5905 5904 5903 5902 5902 5901 5900 5899 5898 5897 5896 5895 5894 5893 5892 5891 5891 5890 5890 5890 5890 5889 5889 5888 5888 5887 5886 5885 5885 5884 5883 5883 5882 5882 5881 5881 5880 5880 5879